FW1967 Weather Reports


time (UTC)temp
C
wind
direction
speed
KPH
gust
KPH
rain 1hr
cm
rain 24hr
cm
rain mn
cm
humidity
%
barometer
mb
20260503194512 27 343 3.2 9.7 0.00 0.00 0.00 26 1010.5
20260503193007 26 26 3.2 11.3 0.00 0.00 0.00 28 1010.6
20260503191503 26 48 1.6 11.3 0.00 0.00 0.00 28 1010.8
20260503190100 25 54 0.0 3.2 0.00 0.00 0.00 33 1011.0
20260503184630 25 55 0.0 4.8 0.00 0.00 0.00 33 1011.1
20260503183104 25 53 1.6 4.8 0.00 0.00 0.00 33 1011.3
20260503181551 23 38 0.0 6.4 0.00 0.00 0.00 36 1011.4
20260503180046 22 43 1.6 6.4 0.00 0.00 0.00 38 1011.5
20260503174600 22 98 1.6 12.9 0.00 0.00 0.00 39 1011.5
20260503173043 21 97 3.2 14.5 0.00 0.00 0.00 37 1011.6
20260503171540 21 73 1.6 8.0 0.00 0.00 0.00 43 1011.7
20260503081558 15 128 0.0 4.8 0.00 0.00 0.00 68 1012.7
20260503071608 15 127 4.8 8.0 0.00 0.00 0.00 68 1012.9
20260503070106 16 134 1.6 8.0 0.00 0.00 0.00 67 1012.8
20260503054641 15 160 4.8 8.0 0.00 0.00 0.00 66 1012.9
20260503053040 16 175 0.0 0.0 0.00 0.00 0.00 65 1012.6
20260503051547 16 175 0.0 0.0 0.00 0.00 0.00 64 1012.7
20260503050034 16 175 0.0 0.0 0.00 0.00 0.00 64 1012.9
20260503044532 16 175 0.0 0.0 0.00 0.00 0.00 62 1013.1
20260503043031 17 182 0.0 0.0 0.00 0.00 0.00 62 1012.9
20260503041533 17 237 0.0 0.0 0.00 0.00 0.00 62 1013.1
20260503040026 17 237 0.0 0.0 0.00 0.00 0.00 61 1013.0
20260503034527 17 237 0.0 0.0 0.00 0.00 0.00 61 1013.0
20260503033025 17 237 0.0 4.8 0.00 0.00 0.00 61 1012.9
20260503031529 17 240 0.0 3.2 0.00 0.00 0.00 60 1012.8
20260503030026 18 239 0.0 8.0 0.00 0.00 0.00 57 1012.8
20260503024517 18 248 3.2 16.1 0.00 0.00 0.00 56 1012.5
20260503023015 19 265 3.2 12.9 0.00 0.00 0.00 57 1012.4
20260503021515 19 255 3.2 6.4 0.00 0.00 0.00 57 1012.2
20260503020014 19 256 0.0 0.0 0.00 0.00 0.00 58 1011.9
20260503014510 19 256 0.0 0.0 0.00 0.00 0.00 57 1011.7
20260503013025 20 256 0.0 0.0 0.00 0.00 0.00 56 1011.6
20260503011510 20 256 0.0 0.0 0.00 0.00 0.00 55 1011.7
20260503010009 21 256 0.0 0.0 0.00 0.00 0.00 53 1011.6
20260503004506 21 256 0.0 0.0 0.00 0.00 0.00 52 1011.8
20260503003005 21 256 0.0 0.0 0.00 0.00 0.00 52 1011.7
20260503001504 21 256 0.0 0.0 0.00 0.00 0.00 51 1011.7
20260503000001 20 256 0.0 4.8 0.00 0.00 0.00 52 1011.7
20260502234615 20 267 3.2 6.4 0.00 0.00 0.00 50 1011.8
20260502233059 20 256 3.2 8.0 0.00 0.00 0.00 50 1011.9
20260502231556 21 264 3.2 11.3 0.00 0.00 0.00 50 1012.1
20260502230059 20 254 3.2 12.9 0.00 0.00 0.00 51 1012.2
20260502224548 20 256 1.6 6.4 0.00 0.00 0.00 49 1012.5
20260502223058 20 261 3.2 11.3 0.00 0.00 0.00 52 1012.8
20260502221542 19 279 1.6 6.4 0.00 0.00 0.00 52 1013.0
20260502220039 18 264 3.2 8.0 0.00 0.00 0.00 53 1013.5
20260502214537 18 267 1.6 9.7 0.00 0.00 0.00 55 1013.6
20260502213042 17 260 1.6 8.0 0.00 0.00 0.00 56 1013.8
20260502211534 17 331 1.6 8.0 0.00 0.00 0.00 56 1014.0
20260502210032 17 268 3.2 11.3 0.00 0.00 0.00 56 1014.4
20260502204502 17 260 1.6 6.4 0.00 0.00 0.00 56 1014.5
20260502203120 17 265 1.6 6.4 0.00 0.00 0.00 55 1014.6
20260502201616 16 332 1.6 6.4 0.00 0.00 0.00 59 1014.7